星链-3110 (STARLINK-3110 )

导读

STARLINK-3110是美国SpaceX星链星座中的一员,于2021年11月13日发射入轨。星链计划旨在构建全球覆盖的低轨卫星互联网,该卫星运行在近地轨道,依托相控阵天线等技术,可提供低时延、高带宽的网络服务,既服务民用通信,也具备潜在军事应用价值,是星链全球组网进程中的重要组成部分。

Basic Information
目录编号:
49420
目录名称:
STARLINK-3110
国际标识:
2021-104N
轨道中心:
EARTH
卫星名称:
星链-3110
卫星全名:
星链-3110 (STARLINK-3110 )
卫星状态:
在轨 (已飞行1756 天)
发射日期:
2021-11-13 UTC
国别 :
美国 (US)
星等 :
--
Orbit Information
数据来源 国际轨道数据 AOE轨道数据
星历时间 2026-09-04T00:27:28+0800
12小时前
查看轨道信息
2026-09-03T23:00:00+0800
13小时前
查看轨道信息
半长轴 6840.887km 6840.851km
偏心率 0.0001224 0.0001369
轨道倾角 53.161° 53.160°
近地点辐角 86.100° 73.385°
升交点赤经 138.261° 138.547°
平近点角 274.014° 311.075°
近地点 461.912km 461.777km
远地点 463.588km 463.651km
周期 93.849分钟 93.848分钟
每日圈数 15.343844 15.343967
Detailed Information
固有亮度:
5
最大亮度:
2.5
卫星平台:
Starlink v1.5
覆盖范围:
全球
运营商:
太空探索技术公司
运营商所在国:
美国
制造商(研发单位):
太空探索技术公司
制造商所在国:
美国
使用方式:
暂无
Satellite Introduction
星链(Starlink)计划是由太空探索技术公司(SpaceX)提出的一个巨型低轨卫星互联网星座项目,计划在2019年至2024年间在太空搭建由约1.2万颗卫星组成的“星链”网络,其中1584颗将部署在地球上空550千米处的近地轨道,并从2020年开始工作。该卫星仍在工作。
2D Orbit Map
3D Orbit Map
Orbit Altitude Analysis Chart
Orbit Inclination Analysis Chart
Orbit Comprehensive Analysis Chart
View Comprehensive Chart
Conjunction Data List
Event ID Objects TCA Miss Dist (km) Collision Risk Probability Collision Risk Index (CRI) Action
CDM_260904-221404-942006-583621
2026-09-04T
22:14:11+0000
0.980 km
远距离
2.513517E-5 中风险 0.63
CDM_260904-173104-942005-248921
2026-09-04T
17:31:12+0000
2.572 km
极远距离
1.486817E-6 低风险 0.38
CDM_260904-234704-942006-583621
2026-09-04T
23:47:59+0000
2.601 km
极远距离
1.450684E-6 低风险 0.38
CDM_260905-113104-942006-583621
2026-09-05T
11:31:24+0000
2.648 km
极远距离
1.408951E-6 低风险 0.38
CDM_260905-062804-942006-277721
2026-09-05T
06:28:17+0000
2.544 km
极远距离
1.131611E-6 低风险 0.36
CDM_260903-190404-942005-811221
2026-09-03T
19:04:38+0000
2.680 km
极远距离
1.080314E-6 低风险 0.36
CDM_260904-213904-942006-808021
2026-09-04T
21:39:57+0000
2.886 km
极远距离
9.316508E-7 极低风险 0.34